Time,TemperatureF,DewpointF,PressureIn,WindDirection,WindDirectionDegrees,WindSpeedMPH,WindSpeedGustMPH,Humidity,HourlyPrecipIn,Conditions,Clouds,dailyrainin,SoftwareType,DateUTC
2013-05-20 00:01:00,59.0,38.0,-100.00,SSE,165,13.0,24.0,45,-99.99,,,-99.99,,2013-05-20 07:01:00,
2013-05-20 01:01:00,58.0,38.0,-100.00,SSE,155,15.0,23.0,47,-99.99,,,-99.99,,2013-05-20 08:01:00,
2013-05-20 01:11:00,58.0,38.0,-100.00,SSE,155,15.0,23.0,47,-99.99,,,-99.99,,2013-05-20 08:11:00,
2013-05-20 02:01:00,57.0,39.0,-100.00,SE,130,13.0,21.0,50,-99.99,,,-99.99,,2013-05-20 09:01:00,
2013-05-20 08:01:00,52.0,39.0,-100.00,NE,35,6.0,12.0,61,-99.99,,,-99.99,,2013-05-20 15:01:00,
2013-05-20 08:10:00,55.0,40.0,-100.00,NNE,15,9.0,15.0,56,-99.99,,,-99.99,,2013-05-20 15:10:00,
2013-05-20 09:00:00,59.0,41.0,-100.00,NE,50,5.0,9.0,51,-99.99,,,-99.99,,2013-05-20 16:00:00,
2013-05-20 09:03:00,55.0,40.0,-100.00,NNE,15,9.0,15.0,56,-99.99,,,-99.99,,2013-05-20 16:03:00,
2013-05-20 11:20:00,69.0,41.0,-100.00,WNW,290,6.0,12.0,36,-99.99,,,-99.99,,2013-05-20 18:20:00,
2013-05-20 12:04:00,69.0,41.0,-100.00,WNW,290,6.0,12.0,36,-99.99,,,-99.99,,2013-05-20 19:04:00,
2013-05-20 12:10:00,72.0,41.0,-100.00,SW,235,7.0,14.0,32,-99.99,,,-99.99,,2013-05-20 19:10:00,
2013-05-20 12:11:00,69.0,41.0,-100.00,WNW,290,6.0,12.0,36,-99.99,,,-99.99,,2013-05-20 19:11:00,
2013-05-20 13:01:00,72.0,41.0,-100.00,SW,235,7.0,14.0,32,-99.99,,,-99.99,,2013-05-20 20:01:00,
2013-05-20 14:01:00,74.0,40.0,-100.00,West,265,10.0,18.0,29,-99.99,,,-99.99,,2013-05-20 21:01:00,
2013-05-20 14:10:00,75.0,42.0,-100.00,WSW,255,10.0,20.0,30,-99.99,,,-99.99,,2013-05-20 21:10:00,
2013-05-20 14:11:00,74.0,40.0,-100.00,West,265,10.0,18.0,29,-99.99,,,-99.99,,2013-05-20 21:11:00,
2013-05-20 15:02:00,75.0,42.0,-100.00,WSW,255,10.0,20.0,30,-99.99,,,-99.99,,2013-05-20 22:02:00,
2013-05-20 16:02:00,76.0,39.0,-100.00,WSW,255,8.0,22.0,26,-99.99,,,-99.99,,2013-05-20 23:02:00,
2013-05-20 16:12:00,76.0,39.0,-100.00,WSW,255,8.0,22.0,26,-99.99,,,-99.99,,2013-05-20 23:12:00,
2013-05-20 17:01:00,76.0,39.0,-100.00,SSW,195,13.0,17.0,26,-99.99,,,-99.99,,2013-05-21 00:01:00,
2013-05-20 18:01:00,76.0,38.0,-100.00,SW,230,12.0,21.0,25,-99.99,,,-99.99,,2013-05-21 01:01:00,
2013-05-20 18:11:00,76.0,38.0,-100.00,SW,230,12.0,21.0,25,-99.99,,,-99.99,,2013-05-21 01:11:00,
2013-05-20 19:02:00,75.0,41.0,-100.00,SSE,160,10.0,20.0,29,-99.99,,,-99.99,,2013-05-21 02:02:00,
2013-05-20 20:02:00,74.0,40.0,-100.00,South,180,12.0,18.0,29,-99.99,,,-99.99,,2013-05-21 03:02:00,
2013-05-20 20:11:00,74.0,40.0,-100.00,South,180,12.0,18.0,29,-99.99,,,-99.99,,2013-05-21 03:11:00,
2013-05-20 21:03:00,72.0,41.0,-100.00,SSW,205,8.0,16.0,32,-99.99,,,-99.99,,2013-05-21 04:03:00,
2013-05-20 22:02:00,69.0,41.0,-100.00,SE,135,6.0,9.0,36,-99.99,,,-99.99,,2013-05-21 05:02:00,
2013-05-20 22:12:00,69.0,41.0,-100.00,SE,135,6.0,9.0,36,-99.99,,,-99.99,,2013-05-21 05:12:00,
2013-05-20 23:02:00,68.0,39.0,-100.00,SE,145,2.0,3.0,34,-99.99,,,-99.99,,2013-05-21 06:02:00,
2013-05-20 23:10:00,58.0,45.0,-100.00,ESE,105,0.0,1.0,61,-99.99,,,-99.99,,2013-05-21 06:10:00,